Location: North Evanston
(42.0634°N, 87.6976°W)
Time: 14:00:06
(UTC+00:00)

Vanguard 3 - Pass Details

Date: 16 May 2026
Orbit: 507 x 3204 km, 33.3° (Epoch: 6 June)

Event Time Altitude Azimuth Distance (km) Brightness Sun altitude
Rises 21:34:27 0° 263° (W) 6,970 12.9 37.2°
Reaches altitude 10° 21:39:01 10° 260° (W) 6,070 12.9 36.4°
Maximum altitude 21:58:16 64° 186° (S) 3,201 10.7 32.8°
Drops below altitude 10° 22:13:00 10° 110° (ESE) 4,802 10.7 30.1°
Sets 22:16:09 0° 107° (ESE) 5,503 10.9 29.5°
